Wetbulb
70.88 70.49 70.47 69.91 56.66 58.03 51.87 56.48 59.87 58.06 59.70 63.40 63.83 62.65 61.71 63.27 61.01 57.34 70.53 72.65 73.08 72.40 73.84 74.73 77.37 77.47 77.39 76.86 76.97 77.32 77.17 77.30 77.04 76.35 75.18 75.76 75.15 75.95 75.94 76.58 77.16 76.24 76.16 75.83 75.28 76.04 75.64 75.52 75.66
66.13 69.19 68.42 60.45 54.02 50.30 54.06 58.15 58.67 60.14 63.03 65.04 64.16 63.28 62.17 61.34 66.77 67.69 68.52 71.94 72.64 73.23 74.52 74.83 76.75 76.75 76.27 76.19 76.12 76.77 76.42 76.07 75.97 76.12 76.29 76.16 75.37 75.54 75.83 75.49 75.95 76.12 76.04 75.91 75.74 75.49 75.20 75.59 75.55
63.87 69.62 64.35 57.83 54.06 52.59 54.20 58.56 58.30 61.53 65.30 63.72 62.47 65.09 64.38 62.90 66.88 68.12 71.58 71.94 72.17 72.38 74.05 75.27 76.22 75.51 74.96 74.40 74.01 73.83 73.53 73.55 73.68 73.94 74.47 74.93 75.27 75.29 75.53 75.32 75.26 74.46 73.62 74.40 75.04 75.59 74.87 75.59 76.51
64.84 66.18 63.58 56.63 52.54 57.47 59.85 60.11 58.48 57.78 62.66 64.33 64.02 60.91 65.63 69.37 69.22 70.65 71.66 70.89 71.73 71.18 72.14 74.87 75.62 75.14 73.96 73.68 73.46 72.86 72.45 72.28 72.24 72.20 72.67 72.97 73.29 72.87 72.72 73.07 73.32 72.40 72.07 72.33 72.90 74.61 75.05 75.13 74.74
64.81 62.71 57.02 52.92 57.31 59.74 61.61 63.07 61.48 59.05 62.42 62.66 64.25 62.02 63.32 68.95 70.76 70.70 70.52 70.69 70.95 69.93 70.52 73.24 74.71 73.86 73.58 73.36 72.81 72.28 71.91 71.68 71.82 71.86 72.00 72.02 71.83 71.55 71.78 71.40 71.13 71.02 71.44 72.52 73.06 73.90 75.05 75.23 75.33
59.98 61.46 55.41 54.14 56.50 59.52 61.35 63.72 63.00 61.91 63.82 63.91 63.22 63.33 64.58 69.53 69.78 70.57 70.78 70.39 70.78 70.40 70.80 71.90 73.58 73.42 72.52 71.64 70.78 70.25 70.52 70.93 70.87 70.80 71.05 71.47 71.98 72.03 71.87 71.42 71.34 71.59 71.22 71.43 72.12 72.19 73.16 73.94 74.09
59.12 59.07 54.57 56.27 56.87 57.95 60.62 64.26 61.12 60.73 63.55 62.70 65.46 61.98 65.17 67.03 69.69 70.15 70.48 70.67 70.41 70.97 71.50 70.91 70.39 71.12 71.20 70.97 71.25 71.13 71.02 70.49 70.65 70.13 70.60 70.98 70.78 71.27 70.95 70.73 68.87 68.26 70.15 71.12 71.48 72.29 72.05 72.11 71.63
60.94 59.56 55.31 57.88 55.42 56.72 61.78 64.25 63.05 62.28 61.91 67.35 67.55 62.07 62.26 67.20 70.01 70.43 70.52 69.57 69.03 67.46 69.02 70.74 70.07 68.29 67.63 67.19 70.88 70.68 70.40 70.45 69.85 70.18 69.92 70.38 71.60 71.29 70.72 70.38 67.81 66.81 67.38 69.07 69.06 70.62 71.76 71.83 71.66
63.37 56.89 54.15 57.03 56.30 58.64 62.72 62.09 66.26 67.72 66.20 67.06 67.53 66.94 68.06 69.72 70.25 69.38 69.25 67.53 66.08 66.18 67.56 68.10 67.80 66.58 66.25 66.82 68.38 71.05 71.60 70.37 69.01 67.19 67.27 66.75 64.34 64.22 64.99 67.90 65.94 68.00 67.16 67.70 68.15 69.84 71.51 71.36 71.51
61.29 57.61 56.55 60.73 61.06 60.22 62.08 63.08 64.18 64.43 64.26 64.28 65.30 67.96 69.31 69.34 68.52 67.26 66.29 64.24 64.45 64.81 65.63 66.73 69.19 69.92 69.02 66.69 69.24 67.58 66.10 66.34 65.99 64.87 63.58 62.78 62.35 63.30 63.94 65.16 67.63 68.86 68.50 69.63 69.50 69.84 71.01 71.42 69.15
59.35 56.92 59.84 61.23 62.07 62.58 62.08 62.39 62.82 60.17 62.05 64.49 63.58 65.70 67.80 68.00 68.19 65.52 63.28 64.07 64.66 65.82 66.26 67.14 69.25 68.05 67.19 66.37 67.07 66.64 66.27 65.48 65.75 65.20 62.17 61.69 60.94 61.12 60.26 59.80 60.16 61.10 64.52 62.46 63.24 63.24 62.88 63.32 66.21
58.70 60.75 61.64 61.81 62.61 62.70 61.32 63.96 64.42 64.37 64.47 66.40 66.54 67.16 66.92 65.62 64.83 64.81 63.93 64.65 64.53 64.77 65.86 66.54 67.25 67.52 68.00 67.02 66.36 66.14 64.83 64.96 63.29 64.37 61.17 59.49 58.54 58.56 57.83 57.76 58.08 59.48 59.87 60.73 62.72 61.31 62.32 61.59 61.75
58.88 60.45 61.74 62.13 63.31 62.84 63.90 62.85 63.17 63.79 66.04 67.05 66.96 66.57 65.49 64.23 64.26 64.31 64.61 64.79 64.86 64.73 65.75 66.26 67.15 68.01 67.73 67.30 67.67 67.10 64.49 63.43 63.20 61.93 60.33 58.89 57.58 57.52 57.21 57.02 57.86 57.73 58.54 58.88 58.50 58.87 59.47 58.93 59.69
61.73 60.95 61.40 62.17 62.66 62.87 62.67 62.63 63.59 63.94 66.16 65.69 65.82 65.29 63.91 63.11 62.93 64.24 65.12 65.04 66.06 66.63 65.76 66.21 66.01 67.86 66.49 67.69 67.70 66.43 63.56 63.16 61.67 60.35 59.50 58.32 57.40 56.98 56.08 55.98 56.83 57.82 56.66 57.12 58.11 56.55 56.00 56.07 56.61
61.95 58.52 60.39 61.99 62.31 62.18 63.53 59.97 61.48 64.54 65.39 64.28 64.55 63.96 62.94 63.20 63.68 64.24 65.39 65.90 66.05 66.07 67.02 67.03 66.73 66.61 67.19 65.14 65.61 66.24 63.05 62.25 60.00 59.32 58.41 56.87 57.10 55.01 53.82 54.86 56.28 55.50 55.47 56.41 55.73 55.51 55.37 55.12 55.73
58.32 59.01 55.48 59.56 61.64 62.45 61.77 56.46 62.72 64.55 63.45 62.06 62.32 62.40 62.71 63.20 63.85 65.01 65.69 65.79 66.86 66.70 66.48 65.98 64.67 63.24 64.62 63.87 64.41 62.75 61.25 61.48 59.56 58.91 57.48 55.85 55.71 54.71 53.18 53.30 54.09 54.06 53.82 53.80 54.63 54.08 53.52 54.33 54.33
56.94 51.63 50.92 52.47 59.07 60.29 60.81 56.96 62.55 64.36 63.24 61.46 61.81 62.20 62.59 63.16 63.89 65.37 66.20 66.35 66.09 66.26 65.74 64.04 63.72 61.19 62.11 63.23 61.74 61.85 62.82 59.70 59.39 58.49 56.21 55.82 54.99 54.35 53.11 52.71 52.90 53.63 52.81 53.12 53.97 53.21 52.69 52.42 53.07
52.12 51.78 53.94 51.41 56.03 58.06 59.28 58.64 63.04 63.99 63.13 62.55 62.28 62.54 62.56 63.04 63.03 64.99 66.22 65.89 65.94 65.11 64.76 63.95 62.41 61.94 61.82 60.58 60.55 60.45 60.36 58.56 59.21 56.44 55.54 55.19 54.18 53.47 52.66 51.65 52.13 53.04 51.94 52.32 53.28 52.04 52.31 52.34 51.99
56.33 55.22 55.05 56.46 58.15 55.91 57.21 58.32 61.98 63.26 62.96 62.79 63.16 62.48 63.20 63.46 64.12 65.57 65.45 65.07 64.76 63.79 63.12 62.63 61.00 61.13 59.61 58.30 56.95 57.01 56.37 58.01 57.43 56.19 55.35 54.78 54.10 53.57 52.04 51.30 52.03 53.13 51.90 52.42 52.48 51.91 50.57 50.61 52.74
55.22 54.20 53.88 57.40 60.39 58.86 55.99 55.83 60.34 62.93 62.73 62.92 62.96 62.75 62.98 63.34 63.65 64.80 63.95 64.45 63.82 62.66 62.86 61.89 60.88 60.10 58.96 58.80 59.13 59.02 60.35 57.98 56.71 56.11 55.66 54.50 54.36 54.09 51.77 52.09 52.33 53.09 52.20 52.44 52.72 52.38 50.07 51.03 52.23
54.94 54.13 54.38 52.53 58.36 59.44 56.68 53.62 56.60 62.68 64.02 63.85 64.33 64.55 63.96 63.08 62.67 63.72 63.33 63.41 62.63 62.24 61.33 60.54 60.22 59.99 59.04 59.25 59.48 57.94 60.06 57.28 53.88 54.11 52.90 54.13 53.93 53.45 54.03 52.90 52.92 53.05 52.64 51.04 51.81 52.44 51.07 49.00 49.00
52.26 56.17 55.44 53.16 51.87 48.87 56.60 49.10 56.64 60.05 61.83 62.66 63.25 63.69 63.36 63.62 63.69 63.74 63.33 62.16 62.08 61.18 61.14 60.55 59.51 59.54 58.57 58.76 57.62 56.48 54.90 52.49 52.88 52.58 53.86 53.61 54.80 53.92 54.35 54.17 53.89 53.99 52.97 52.31 51.41 52.24 52.20 50.72 47.17
52.15 54.71 53.14 53.05 51.43 51.39 52.25 50.28 54.03 59.52 59.83 60.84 62.66 63.55 63.57 63.98 63.01 63.56 63.00 62.50 62.30 61.41 60.32 59.69 59.53 58.98 59.42 58.44 57.47 54.53 53.72 53.74 53.80 54.58 55.22 56.26 55.22 54.46 54.67 54.69 53.91 53.47 52.79 52.83 52.46 52.12 51.49 52.41 49.49
54.50 52.97 52.75 53.28 51.50 46.78 52.35 50.71 51.15 57.52 59.69 61.44 63.10 63.17 62.99 63.26 63.24 63.29 63.23 62.15 61.71 61.16 59.65 58.04 58.44 58.42 59.04 58.48 56.92 56.01 53.98 54.14 52.95 54.12 52.83 53.18 53.24 53.67 55.81 55.00 54.37 54.21 53.97 53.07 52.36 52.73 52.43 52.04 51.72
52.24 50.96 45.46 45.13 46.38 44.86 53.35 50.15 50.61 56.49 62.83 63.09 62.86 62.35 63.05 63.01 62.32 60.78 60.57 60.65 60.75 60.05 58.10 56.43 57.51 57.07 58.01 57.59 56.30 55.73 55.40 55.80 54.96 54.27 53.12 53.83 53.20 52.84 54.56 54.88 54.48 53.12 53.68 53.39 53.42 52.70 51.72 51.81 51.12
51.35 51.33 47.37 43.67 44.53 47.88 53.75 48.73 52.29 62.04 62.88 64.46 65.07 63.08 62.89 62.76 61.81 61.56 61.98 60.95 60.38 59.05 56.84 56.10 56.14 56.36 57.05 56.42 55.86 56.25 56.04 54.17 54.50 55.35 54.70 54.02 53.67 53.53 55.86 54.76 54.24 54.80 53.44 53.39 53.19 52.53 51.95 51.54 51.00
52.64 50.22 54.46 52.40 53.16 48.89 51.02 53.53 59.96 61.46 61.12 63.06 63.15 63.08 62.52 61.36 62.36 62.13 62.16 61.02 59.67 57.77 56.10 55.65 56.09 55.77 56.74 55.55 55.73 55.29 55.81 55.75 55.48 56.63 56.60 54.83 55.86 54.65 54.54 54.80 54.40 53.57 54.18 53.48 52.79 51.79 51.53 51.46 51.55
54.54 56.55 51.31 52.45 45.89 44.31 48.92 50.44 51.06 55.22 59.79 61.41 62.16 62.59 62.79 61.90 61.59 61.60 60.61 60.07 59.06 56.98 56.04 56.50 56.34 55.86 56.22 55.48 55.10 54.65 55.19 55.51 56.31 56.77 55.29 55.25 55.64 55.67 54.79 53.65 53.79 53.56 53.12 53.23 52.88 51.60 51.63 51.06 51.31
52.74 52.05 54.76 55.55 51.99 46.85 44.34 47.74 57.07 58.64 61.44 60.91 62.67 62.78 62.24 61.78 61.36 60.32 60.05 59.42 57.87 56.48 55.24 55.65 55.88 55.83 55.97 54.92 55.45 54.97 54.95 54.88 56.61 55.87 54.94 55.27 54.35 54.97 53.50 54.18 53.57 52.75 52.30 52.29 51.79 51.37 50.02 49.48 50.58
54.09 53.56 54.58 50.86 50.39 50.38 50.37 49.83 60.39 61.60 62.60 63.10 62.34 62.24 62.26 61.68 61.12 60.49 59.75 57.97 56.51 55.32 54.92 55.27 55.81 55.56 55.75 55.14 54.90 54.51 54.95 55.17 56.09 55.80 55.55 54.68 54.80 53.19 52.42 53.12 52.78 52.01 50.85 51.66 51.29 50.06 50.70 50.25 49.70
MSLP
1008.77 1008.62 1008.28 1007.32 1008.75 1008.47 1007.71 1006.60 1006.67 1005.55 1004.84 1005.15 1006.06 1006.96 1008.36 1009.34 1009.60 1011.76 1012.49 1012.47 1012.67 1012.95 1013.60 1014.35 1014.60 1014.41 1014.33 1014.55 1014.43 1014.35 1014.49 1014.50 1014.61 1014.58 1014.82 1014.69 1014.89 1014.93 1015.11 1015.29 1015.38 1015.46 1015.65 1015.96 1015.93 1015.88 1016.00 1015.92 1015.79
1007.71 1007.21 1006.78 1010.20 1011.86 1009.83 1008.16 1006.53 1006.23 1005.88 1005.15 1005.22 1006.12 1007.63 1008.79 1009.84 1010.70 1011.68 1012.33 1012.48 1013.72 1013.47 1014.33 1014.93 1015.07 1014.89 1014.93 1014.92 1015.00 1014.99 1015.07 1015.00 1014.99 1015.10 1015.15 1015.01 1015.20 1015.29 1015.37 1015.51 1015.61 1015.52 1015.60 1015.93 1016.14 1016.19 1016.28 1016.15 1016.00
1008.15 1007.01 1006.61 1010.23 1011.25 1009.20 1006.28 1007.92 1007.48 1006.98 1005.73 1006.07 1007.19 1008.18 1009.30 1010.35 1011.02 1011.39 1012.01 1012.65 1012.74 1013.64 1014.80 1015.56 1015.59 1015.45 1015.46 1015.51 1015.49 1015.47 1015.51 1015.42 1015.36 1015.38 1015.36 1015.39 1015.46 1015.54 1015.52 1015.60 1015.70 1015.64 1015.88 1016.04 1016.02 1016.19 1016.25 1016.02 1016.00
1007.01 1006.27 1005.84 1008.31 1008.27 1006.01 1004.92 1006.65 1007.28 1008.89 1008.40 1007.09 1007.27 1009.12 1010.55 1010.62 1011.57 1012.07 1011.84 1011.87 1012.52 1013.81 1014.97 1015.81 1015.94 1015.95 1015.82 1015.85 1015.88 1015.82 1015.85 1015.76 1015.73 1015.58 1015.48 1015.69 1015.60 1015.77 1015.72 1015.70 1015.77 1015.81 1015.96 1016.07 1015.96 1015.98 1016.06 1015.96 1016.15
1005.94 1004.49 1004.10 1005.06 1005.00 1003.46 1003.96 1005.94 1007.30 1009.25 1008.04 1007.96 1008.23 1009.96 1010.77 1011.20 1011.79 1012.28 1012.13 1011.93 1012.61 1013.81 1014.83 1015.85 1016.18 1016.27 1016.28 1016.40 1016.33 1016.22 1016.35 1016.24 1016.17 1016.14 1016.14 1016.01 1016.00 1016.07 1016.20 1016.25 1016.08 1016.22 1016.29 1016.30 1015.99 1015.62 1015.61 1015.75 1015.97
1004.46 1003.40 1003.02 1001.91 1002.32 1002.98 1003.61 1004.64 1006.02 1006.61 1007.17 1007.99 1008.48 1009.84 1010.84 1011.62 1011.97 1012.30 1012.24 1012.16 1012.30 1013.50 1014.84 1015.72 1016.26 1016.38 1016.62 1016.69 1016.76 1016.81 1016.78 1016.62 1016.53 1016.49 1016.45 1016.33 1016.07 1015.99 1016.04 1016.17 1016.14 1016.11 1016.07 1016.12 1015.92 1015.64 1015.34 1015.45 1015.49
1003.58 1002.25 1002.84 1001.84 1002.09 1002.94 1003.51 1004.79 1006.16 1007.47 1006.96 1007.71 1008.60 1009.63 1011.09 1011.77 1011.97 1012.07 1012.25 1012.16 1012.39 1012.98 1014.51 1015.62 1016.10 1016.19 1016.56 1016.97 1016.87 1016.90 1017.07 1016.96 1016.84 1016.65 1016.57 1016.46 1016.25 1015.97 1016.02 1016.10 1016.00 1015.98 1016.02 1015.85 1015.69 1015.46 1015.09 1015.04 1015.24
1002.83 1002.01 1001.78 1001.51 1001.67 1003.04 1003.60 1004.69 1006.29 1007.16 1006.99 1007.22 1007.69 1009.59 1010.93 1011.78 1012.04 1012.45 1012.66 1012.90 1013.33 1013.91 1014.16 1014.82 1015.80 1015.60 1015.64 1016.64 1017.05 1016.83 1016.95 1017.02 1017.12 1017.06 1016.86 1016.37 1016.03 1015.95 1015.80 1015.96 1015.86 1015.91 1015.73 1015.57 1015.43 1015.12 1014.88 1014.82 1014.87
1002.03 1001.61 1001.76 1001.22 1002.01 1002.69 1003.47 1004.83 1006.05 1006.49 1007.51 1008.24 1008.66 1009.69 1011.17 1011.99 1012.13 1012.38 1012.80 1013.50 1014.19 1014.66 1015.08 1015.31 1015.50 1015.49 1015.61 1016.14 1016.80 1016.78 1016.78 1016.94 1017.28 1017.56 1017.58 1016.97 1016.75 1016.37 1016.03 1015.97 1015.91 1015.67 1015.51 1015.40 1015.12 1014.95 1014.85 1014.78 1014.63
1002.60 1001.86 1002.13 1001.12 1001.50 1002.21 1003.45 1004.62 1005.66 1007.42 1008.07 1009.11 1010.00 1010.88 1011.43 1011.64 1011.83 1011.99 1012.59 1013.15 1013.96 1014.87 1015.66 1016.02 1016.08 1016.09 1016.15 1016.33 1016.60 1016.84 1017.06 1017.18 1017.51 1017.81 1018.11 1017.73 1017.47 1016.94 1016.51 1016.27 1015.91 1015.52 1015.40 1015.15 1014.86 1014.71 1014.59 1014.35 1014.10
1003.93 1003.46 1000.85 1001.18 1001.75 1002.58 1003.70 1004.44 1006.97 1008.11 1008.09 1008.50 1009.45 1010.32 1010.74 1010.73 1011.16 1011.75 1012.24 1012.80 1013.87 1014.93 1015.85 1016.47 1016.52 1016.60 1016.57 1016.55 1016.87 1017.17 1017.29 1017.60 1017.65 1017.96 1018.34 1018.44 1018.13 1017.57 1017.38 1017.08 1016.54 1016.08 1015.54 1015.15 1014.89 1014.85 1014.47 1014.20 1014.01
1003.83 1002.61 1001.73 1001.79 1002.24 1002.82 1003.66 1004.56 1005.88 1006.86 1007.49 1008.45 1009.27 1009.88 1010.13 1010.19 1010.77 1011.60 1012.44 1013.14 1014.20 1015.06 1015.67 1016.28 1016.79 1017.01 1017.36 1017.28 1017.33 1017.56 1017.86 1017.91 1018.05 1018.12 1018.55 1018.75 1018.61 1018.31 1018.32 1017.86 1017.30 1016.49 1015.94 1015.63 1015.22 1015.09 1014.78 1014.53 1014.21
1001.39 1001.31 1001.75 1002.16 1002.40 1003.35 1004.21 1005.16 1006.59 1007.40 1008.02 1008.72 1009.38 1009.85 1010.05 1010.58 1011.33 1012.01 1012.73 1013.57 1014.48 1015.27 1015.89 1016.55 1017.14 1017.52 1017.59 1017.79 1017.86 1017.91 1018.23 1018.12 1018.17 1018.31 1018.70 1019.05 1019.17 1018.84 1018.66 1018.28 1017.57 1016.97 1016.47 1016.15 1015.82 1015.58 1015.65 1015.36 1014.83
1001.74 1001.77 1002.30 1002.85 1003.25 1003.87 1004.75 1006.11 1006.87 1007.96 1008.44 1009.06 1009.44 1009.62 1010.24 1011.14 1011.99 1012.93 1013.84 1014.69 1015.53 1016.03 1016.39 1016.67 1017.16 1017.71 1017.66 1017.95 1018.05 1017.93 1018.34 1018.32 1018.40 1018.63 1018.98 1019.35 1019.51 1019.40 1019.21 1018.68 1017.89 1017.43 1017.60 1017.09 1016.73 1016.77 1016.56 1016.35 1015.79
1001.89 1002.37 1003.09 1003.61 1004.43 1004.70 1005.21 1005.94 1006.44 1008.05 1008.53 1009.03 1009.31 1009.84 1010.74 1011.68 1012.59 1013.36 1014.35 1015.39 1016.26 1016.80 1017.22 1017.13 1017.19 1017.62 1017.99 1018.27 1018.05 1017.92 1018.27 1018.36 1018.74 1018.99 1019.43 1019.87 1019.97 1020.08 1020.00 1019.02 1018.17 1018.35 1018.24 1017.69 1017.57 1017.26 1017.07 1016.97 1016.38
1002.28 1003.13 1004.42 1006.40 1005.41 1005.00 1005.57 1006.79 1007.21 1008.02 1008.49 1008.96 1009.40 1009.96 1010.94 1011.93 1012.65 1013.66 1014.80 1015.82 1016.36 1016.73 1017.38 1017.93 1018.13 1018.23 1018.24 1018.43 1018.19 1018.11 1018.40 1018.66 1019.03 1019.33 1019.74 1020.30 1020.33 1020.38 1020.21 1019.38 1018.90 1019.08 1018.84 1018.42 1018.08 1017.89 1017.52 1017.06 1016.49
1002.88 1004.78 1007.25 1009.24 1006.40 1006.91 1005.92 1007.39 1007.13 1008.02 1008.24 1008.79 1009.33 1010.00 1010.87 1011.81 1012.95 1014.06 1015.02 1016.05 1016.86 1017.49 1017.83 1018.35 1018.99 1019.06 1018.72 1018.59 1018.51 1018.44 1018.66 1018.97 1019.25 1019.54 1020.22 1020.69 1020.65 1020.59 1020.60 1019.93 1019.58 1019.45 1019.02 1018.60 1018.36 1018.06 1017.72 1017.05 1016.32
1002.86 1005.48 1007.43 1008.36 1007.36 1007.98 1005.20 1005.21 1006.03 1007.26 1007.75 1008.16 1008.86 1009.61 1010.48 1011.54 1012.92 1014.19 1015.44 1016.46 1017.26 1018.13 1018.64 1019.08 1019.50 1019.71 1019.22 1019.03 1018.96 1018.84 1018.92 1019.25 1019.33 1020.09 1020.70 1020.85 1020.86 1020.80 1020.64 1020.29 1020.01 1019.53 1019.15 1018.78 1018.47 1018.14 1017.74 1017.14 1016.33
1002.04 1002.68 1004.39 1005.52 1005.66 1007.08 1003.76 1003.69 1004.74 1006.12 1007.06 1007.29 1007.85 1008.81 1010.00 1011.45 1012.73 1014.09 1015.63 1016.83 1017.82 1018.70 1019.19 1019.68 1019.95 1020.20 1019.85 1019.59 1019.58 1019.40 1019.47 1019.47 1019.70 1020.19 1020.80 1020.90 1020.85 1020.76 1020.59 1020.17 1019.71 1019.22 1018.91 1018.61 1018.37 1018.18 1017.66 1016.99 1016.19
1001.93 1002.08 1001.85 1001.73 1001.93 1002.46 1002.34 1002.36 1002.80 1004.42 1005.70 1006.47 1007.06 1008.03 1009.60 1011.33 1012.65 1014.00 1015.81 1016.84 1018.01 1018.88 1019.42 1020.00 1020.29 1020.49 1020.39 1020.03 1019.97 1019.97 1019.69 1019.68 1020.09 1020.44 1020.84 1021.09 1020.90 1020.73 1020.61 1020.31 1019.80 1019.32 1018.99 1018.49 1018.37 1018.10 1017.73 1017.20 1016.48
1001.19 1001.32 1001.29 1001.00 1001.10 1001.51 1001.66 1001.72 1001.86 1002.92 1004.68 1005.97 1006.61 1007.63 1009.38 1010.94 1012.50 1014.02 1015.55 1016.65 1017.58 1018.57 1019.39 1020.04 1020.38 1020.49 1020.72 1020.52 1020.33 1020.22 1019.59 1019.86 1020.60 1020.75 1021.11 1021.12 1020.98 1020.71 1020.53 1020.27 1019.79 1019.42 1019.04 1018.70 1018.47 1017.99 1017.87 1017.42 1016.91
1000.22 1000.63 1000.94 1000.82 1000.59 1000.29 1000.74 1000.88 1000.75 1001.97 1003.92 1005.23 1006.09 1007.23 1009.08 1010.75 1012.51 1013.77 1015.02 1016.65 1017.39 1018.26 1019.26 1019.95 1020.40 1020.65 1020.78 1020.97 1020.92 1021.05 1020.59 1020.70 1021.21 1021.21 1021.22 1021.03 1020.84 1020.57 1020.16 1019.97 1019.62 1019.31 1018.96 1018.77 1018.53 1018.21 1017.92 1017.73 1017.29
1000.08 1000.40 1000.41 1000.49 1000.63 1000.90 1000.85 1001.44 1002.11 1002.74 1003.60 1004.42 1005.38 1006.59 1008.45 1010.59 1012.39 1013.52 1014.72 1016.22 1017.06 1017.86 1018.84 1019.88 1020.41 1020.76 1020.99 1021.27 1021.47 1021.45 1021.49 1021.24 1021.34 1021.19 1021.07 1020.91 1020.68 1020.41 1020.12 1019.91 1019.76 1019.43 1019.12 1018.88 1018.55 1018.11 1017.87 1017.63 1017.45
1000.44 1000.33 1000.41 1001.05 1001.32 1001.43 1002.53 1003.49 1004.87 1002.68 1002.87 1003.77 1004.74 1006.20 1008.41 1010.43 1012.26 1013.59 1014.77 1015.84 1016.44 1017.22 1018.30 1019.44 1020.23 1020.74 1020.99 1021.20 1021.59 1021.77 1021.67 1021.61 1021.51 1021.24 1020.93 1020.84 1020.57 1020.27 1019.96 1019.81 1019.71 1019.32 1019.05 1018.74 1018.48 1018.17 1017.76 1017.57 1017.25
1000.36 1000.48 1000.56 1001.17 1001.45 1003.13 1004.64 1005.50 1004.20 1004.30 1002.31 1002.97 1004.36 1006.21 1008.42 1010.70 1012.23 1013.67 1014.56 1015.36 1016.04 1016.80 1017.80 1019.11 1019.86 1020.43 1020.84 1021.17 1021.61 1021.80 1021.70 1021.55 1021.38 1021.29 1021.07 1020.95 1020.70 1020.31 1020.01 1019.80 1019.68 1019.42 1018.98 1018.61 1018.25 1018.09 1017.76 1017.39 1017.20
1000.08 1000.44 1000.40 1000.69 1002.22 1002.21 1003.63 1004.25 1002.50 1001.58 1001.80 1002.26 1003.77 1006.47 1008.84 1010.42 1011.73 1012.91 1013.80 1014.76 1015.65 1016.80 1017.87 1018.62 1019.52 1020.04 1020.58 1021.17 1021.60 1021.82 1021.79 1021.63 1021.42 1021.34 1021.29 1021.07 1020.83 1020.59 1020.00 1019.95 1019.61 1019.23 1018.97 1018.50 1018.17 1017.99 1017.76 1017.43 1017.09
999.68 999.85 1000.02 1000.40 1000.90 1001.21 1002.03 1003.94 1002.37 1003.10 1003.29 1003.26 1004.56 1006.54 1008.54 1010.11 1011.18 1012.11 1013.08 1014.25 1015.57 1017.01 1018.05 1018.60 1019.19 1019.93 1020.39 1020.98 1021.38 1021.79 1021.77 1021.67 1021.49 1021.46 1021.32 1021.11 1020.83 1020.51 1020.24 1019.79 1019.52 1019.27 1018.89 1018.62 1018.33 1018.02 1017.74 1017.42 1017.01
999.09 999.51 999.90 1000.10 1000.79 1001.36 1001.98 1003.62 1003.78 1001.96 1003.12 1003.65 1004.51 1006.05 1007.79 1009.73 1010.64 1011.73 1013.26 1014.62 1015.81 1017.15 1018.11 1018.46 1018.95 1019.60 1020.16 1020.80 1021.24 1021.50 1021.70 1021.59 1021.49 1021.45 1021.30 1021.22 1020.93 1020.56 1020.40 1020.16 1019.75 1019.38 1019.04 1018.53 1018.29 1018.03 1017.80 1017.45 1017.05
998.81 999.03 999.47 999.83 1000.96 1001.90 1002.50 1003.76 1003.49 1002.24 1002.69 1003.68 1004.90 1006.32 1007.72 1009.01 1010.46 1012.19 1013.60 1014.95 1015.91 1016.91 1017.77 1018.57 1018.93 1019.42 1020.06 1020.92 1021.16 1021.49 1021.57 1021.60 1021.43 1021.46 1021.37 1021.25 1021.08 1020.71 1020.51 1020.17 1019.84 1019.51 1019.14 1018.88 1018.56 1018.24 1017.95 1017.57 1017.08
998.51 998.69 999.12 999.76 1000.60 1002.03 1002.67 1002.78 1002.01 1002.31 1002.86 1003.97 1005.11 1006.37 1007.72 1009.14 1010.79 1012.39 1013.70 1014.94 1015.93 1016.62 1017.59 1018.48 1019.05 1019.41 1020.05 1020.82 1021.27 1021.61 1021.65 1021.61 1021.49 1021.36 1021.26 1021.14 1021.10 1020.81 1020.61 1020.31 1019.98 1019.61 1019.33 1019.08 1018.73 1018.42 1017.97 1017.59 1017.22
Wind_Speed
5 9 9 6 7 6 3 11 13 7 12 23 25 22 24 21 13 10 6 6 7 17 17 16 15 16 16 15 17 17 17 16 11 9 7 6 6 2 0 1 1 1 3 6 6 7 7 5 6
8 14 7 7 2 3 8 5 15 10 11 19 23 22 21 22 18 13 9 4 8 18 15 13 15 17 18 18 18 18 17 17 16 15 15 11 6 2 3 4 6 8 8 9 11 10 10 9 7
9 14 3 6 2 8 5 20 21 22 19 18 15 18 13 16 17 11 8 16 19 19 16 13 16 17 19 19 18 18 16 15 15 14 14 12 11 12 9 8 9 8 8 9 10 12 10 12 10
7 7 4 7 7 18 21 19 28 12 9 21 20 19 16 12 8 8 8 15 20 20 17 15 16 17 19 19 19 19 18 18 17 16 14 11 13 14 13 11 9 6 5 6 7 7 11 11 12
12 7 9 13 21 20 14 23 28 16 16 11 22 19 18 18 17 11 7 13 22 19 16 14 16 18 19 19 20 20 18 18 18 16 14 12 9 8 8 8 6 6 8 9 9 7 6 7 8
10 12 5 6 17 16 12 18 13 18 21 24 23 20 17 14 14 12 8 12 14 19 17 15 17 19 18 18 18 17 15 14 14 14 13 12 8 8 8 7 8 10 7 9 12 12 8 7 4
15 10 2 6 17 16 12 25 17 8 18 15 20 20 18 13 10 12 10 10 13 18 19 15 15 18 18 13 14 13 10 10 11 14 15 12 8 1 4 6 8 10 9 9 9 10 10 8 6
14 12 18 10 12 13 17 20 22 16 13 14 24 14 16 13 14 13 12 15 15 16 10 17 15 17 16 11 10 14 14 13 16 17 20 20 4 8 10 5 8 6 8 11 12 12 11 13 16
18 8 9 20 11 10 18 17 17 15 18 21 22 21 17 15 12 14 14 15 12 11 12 11 11 12 11 10 8 9 12 14 14 14 19 15 10 12 11 10 2 7 9 10 13 12 11 13 18
7 8 14 16 14 15 17 13 17 16 17 18 18 18 17 17 16 16 15 15 16 14 13 11 7 5 6 8 6 7 9 7 7 8 11 11 11 10 12 14 18 12 8 12 15 12 13 14 8
11 7 7 18 18 16 13 8 30 8 15 15 17 17 17 16 16 14 11 14 13 13 11 10 6 11 12 8 6 5 4 5 5 8 9 9 9 9 9 8 9 8 11 5 9 7 6 10 5
11 23 2 15 13 14 13 11 17 13 18 15 16 15 12 12 13 13 14 14 14 12 11 12 11 9 8 7 7 6 6 4 5 4 9 7 6 7 8 7 10 7 6 7 5 5 6 10 13
5 10 13 9 12 14 13 13 13 13 15 16 15 14 13 13 13 13 14 14 13 12 11 12 11 8 7 7 4 4 5 5 5 6 9 7 8 7 8 8 8 8 8 9 9 8 9 10 13
17 7 11 8 12 9 15 14 11 12 14 15 15 14 14 14 13 13 11 12 12 10 10 8 12 8 9 5 4 3 5 5 5 6 8 11 8 9 9 9 8 7 10 10 8 10 9 10 12
10 10 10 10 9 10 15 9 13 13 14 15 14 13 14 13 13 11 12 11 9 9 8 10 9 9 6 7 5 4 5 5 6 6 11 12 9 10 10 9 8 10 9 11 10 9 9 8 9
9 8 4 20 6 10 11 9 13 15 14 15 15 14 14 14 13 13 12 9 6 10 9 10 11 11 8 7 5 5 6 5 6 5 7 10 10 11 10 9 8 10 8 9 8 7 7 7 8
10 9 21 22 26 18 10 6 17 14 14 14 14 14 14 13 13 11 13 9 9 9 9 10 10 11 9 7 6 5 6 6 5 6 8 9 9 10 8 9 8 9 7 7 6 6 7 8 9
15 12 10 22 21 25 14 7 18 16 15 15 15 15 15 14 15 12 14 11 10 10 8 9 8 9 8 6 5 5 4 6 4 8 7 8 8 11 8 7 8 7 6 5 5 7 7 8 9
11 6 17 24 29 35 5 8 20 19 16 16 17 16 14 16 15 14 14 10 9 8 8 8 9 8 7 6 6 6 5 4 5 7 9 7 7 6 6 7 7 7 7 4 5 4 7 8 8
21 19 14 5 12 6 5 12 16 22 20 18 16 16 18 17 16 18 14 11 9 6 7 8 8 8 7 6 4 4 2 5 6 6 7 7 8 6 6 7 7 9 8 7 8 4 4 6 6
17 18 12 19 10 8 9 15 14 23 21 17 15 14 19 19 17 18 14 12 11 8 7 7 7 7 7 9 4 6 4 6 7 6 6 4 8 6 4 7 7 7 7 7 9 6 8 6 7
17 16 13 19 18 13 5 13 18 19 18 19 18 16 18 18 16 15 14 13 10 10 7 8 7 7 7 8 7 7 5 6 5 5 4 4 5 5 5 5 6 6 6 6 7 6 5 6 6
15 14 18 17 17 19 15 11 7 15 18 20 18 18 20 19 17 17 15 13 11 10 9 8 7 6 5 7 6 7 7 5 3 3 4 2 4 3 5 6 8 7 6 8 10 8 7 3 3
16 18 14 12 16 14 9 3 7 10 21 19 19 20 22 21 17 16 14 12 11 10 12 9 8 5 5 5 8 5 6 5 5 5 5 5 3 5 4 6 6 7 6 7 8 8 7 5 5
19 13 9 12 10 3 2 9 7 30 16 21 19 24 23 21 19 16 15 12 10 8 11 10 8 7 4 8 6 6 6 5 5 6 6 7 6 6 6 7 5 6 8 7 8 7 6 7 6
12 15 11 9 9 13 18 9 6 13 5 15 18 24 24 21 18 19 16 13 11 10 6 10 9 7 7 7 7 5 6 4 4 6 5 5 5 6 6 7 6 5 7 6 7 5 4 7 6
16 18 18 16 16 16 5 4 5 17 5 14 24 23 23 20 18 16 15 13 12 10 7 6 9 7 7 7 6 4 4 4 5 6 5 4 5 6 9 8 6 5 6 6 8 6 5 6 5
20 13 11 7 16 13 12 6 7 20 12 11 21 20 16 21 17 16 13 11 10 11 7 7 8 7 9 7 5 5 4 4 5 5 6 7 6 6 6 8 8 7 7 8 8 7 5 7 5
14 13 12 10 4 11 5 5 6 4 13 11 17 16 17 16 16 14 13 11 11 13 11 8 7 7 9 7 5 4 5 5 4 4 5 5 7 6 6 7 7 9 9 9 9 9 8 8 7
17 11 15 10 7 11 14 6 6 6 9 12 14 17 16 15 16 14 14 12 9 8 10 7 4 6 10 6 5 4 3 4 5 4 6 6 5 6 7 6 7 7 8 10 9 8 8 9 8
Wind_Direction
180 221 234 288 16 1 322 58 99 56 90 90 77 73 69 56 38 87 112 114 118 64 55 53 41 49 54 55 59 59 58 57 61 70 45 41 24 36 284 295 282 176 240 279 246 223 236 259 272
243 245 230 92 308 83 229 183 129 173 98 91 93 90 67 68 85 100 94 110 79 84 67 62 61 61 60 59 59 57 60 59 59 59 59 55 39 17 336 360 359 6 354 317 310 307 299 280 276
263 262 139 109 252 253 134 82 45 349 45 52 82 58 53 91 78 89 117 95 100 83 74 66 66 64 66 66 64 63 56 56 60 59 52 56 63 54 50 44 22 9 342 315 310 305 294 300 300
248 214 178 146 195 226 71 91 90 277 29 133 114 79 73 75 82 70 29 123 86 79 76 67 67 67 66 66 64 61 57 53 48 44 44 36 48 37 39 33 28 27 352 311 297 296 304 304 297
230 259 252 195 189 60 72 116 126 202 98 58 88 98 94 84 104 96 45 74 96 89 90 89 77 70 67 67 64 59 55 52 51 49 46 42 41 43 44 20 4 346 334 323 310 296 292 299 309
256 250 217 127 84 77 79 81 139 145 83 109 95 98 95 99 115 123 118 105 101 108 103 105 101 91 81 79 75 69 61 53 47 34 23 12 33 64 59 66 38 14 337 306 304 302 308 294 288
260 273 26 319 89 66 63 82 74 346 112 125 117 106 106 112 99 102 100 90 103 118 119 124 122 114 104 97 98 91 77 64 42 30 7 357 314 32 75 86 45 12 345 333 322 299 278 263 265
253 288 282 96 91 93 84 78 125 194 88 107 125 126 114 127 120 99 87 65 57 52 69 130 152 146 123 111 115 106 85 57 43 21 2 339 250 338 38 207 46 347 326 318 315 309 300 273 254
265 268 303 109 110 138 93 99 86 83 69 66 65 97 112 110 126 129 121 101 90 82 68 58 43 41 46 86 131 130 97 67 34 28 2 345 358 335 4 343 313 305 285 295 298 297 279 276 261
10 51 285 124 130 90 92 115 129 108 106 99 101 114 133 147 151 148 136 133 121 94 71 57 56 95 70 49 65 33 34 36 61 49 18 354 347 333 353 350 327 343 310 263 266 259 269 270 260
359 190 81 96 98 97 111 130 91 300 127 132 127 136 154 175 168 127 113 111 112 117 116 110 73 42 16 67 36 38 44 13 33 57 41 5 347 1 5 336 346 336 310 325 346 314 291 328 291
164 232 154 104 106 118 99 87 75 98 101 117 127 141 150 145 110 111 127 109 90 85 87 86 57 62 48 24 27 32 9 34 14 27 47 16 352 11 352 349 331 320 333 326 326 330 336 330 328
243 132 104 119 129 110 136 108 102 104 117 120 130 145 155 112 118 98 86 93 106 90 86 92 65 28 66 54 18 31 44 2 16 32 51 25 350 9 339 339 319 334 341 350 348 331 2 345 330
150 130 139 158 108 145 102 119 117 128 128 135 151 155 123 120 113 100 91 81 66 68 72 75 94 73 37 45 6 9 69 357 33 29 44 28 355 8 358 325 326 3 0 341 2 2 358 343 331
221 178 156 151 158 131 158 157 137 150 151 156 152 144 131 132 130 124 111 100 109 89 55 17 80 72 51 30 356 348 72 23 46 26 55 27 8 13 348 327 345 15 348 339 360 3 351 332 315
180 202 170 356 261 163 203 175 142 163 164 160 160 150 147 147 140 122 108 99 75 92 89 70 26 25 31 38 357 7 44 40 44 41 48 32 11 1 348 333 7 5 346 342 348 351 325 318 310
232 130 78 328 306 298 139 160 160 183 177 169 170 162 159 153 127 119 122 121 94 73 61 54 52 23 2 37 358 35 55 53 47 52 48 17 10 6 350 336 4 346 332 337 343 339 330 317 314
238 60 182 189 244 269 192 183 160 171 194 181 182 175 176 154 140 141 93 97 92 75 63 73 48 24 349 33 15 32 35 50 39 64 54 25 14 10 0 343 339 327 321 330 346 339 329 319 315
281 238 207 186 199 233 197 211 161 165 199 210 186 186 170 151 141 132 115 107 95 81 76 49 58 30 2 43 25 9 11 61 42 63 70 30 20 14 359 340 331 337 333 328 331 330 323 324 319
272 278 265 104 146 202 259 238 187 170 191 210 198 193 159 155 149 129 133 127 101 104 90 71 52 52 30 9 47 338 351 67 46 66 56 33 7 13 4 335 339 342 335 339 347 351 332 332 4
245 265 282 278 153 207 251 262 251 178 174 201 213 185 162 161 154 137 147 142 127 109 84 75 60 67 44 350 28 350 33 53 39 27 32 15 14 8 350 333 338 338 333 343 330 346 353 330 349
243 248 251 273 288 276 287 256 267 165 174 190 207 169 168 160 150 141 146 136 135 121 109 85 72 42 68 21 32 43 21 44 47 8 12 355 4 345 356 339 342 336 322 349 329 348 339 343 337
257 265 266 264 258 267 260 268 12 177 188 193 202 186 167 157 161 152 144 148 148 140 122 104 88 72 64 81 57 30 21 15 74 3 333 37 329 305 342 354 343 344 350 346 342 340 337 337 307
265 253 252 276 274 265 345 63 290 220 198 191 192 155 157 164 146 145 139 147 153 159 132 117 111 96 83 83 71 62 37 24 8 351 351 6 341 331 359 2 349 338 342 338 333 333 319 325 322
249 247 246 243 243 281 271 315 232 259 189 187 184 152 151 149 147 141 153 168 170 129 121 129 119 115 110 87 76 34 30 41 16 354 12 338 355 337 353 355 2 339 330 340 333 329 329 333 326
234 236 245 239 231 240 192 242 183 182 123 162 163 139 141 150 150 159 167 164 163 122 112 130 136 120 112 83 66 62 32 21 9 22 355 346 2 335 357 1 337 339 330 343 342 326 346 336 320
218 235 238 259 269 283 146 274 62 24 329 139 139 147 155 151 156 164 166 143 123 122 127 119 113 116 101 94 97 78 33 29 360 18 353 351 349 350 8 346 358 0 341 342 348 337 3 344 335
241 212 251 248 266 293 333 9 296 203 177 168 142 148 153 152 158 142 135 128 132 121 128 129 128 124 108 95 71 66 56 4 10 10 15 5 2 5 2 346 2 356 351 360 357 348 0 347 347
231 245 245 259 172 257 246 142 261 322 149 167 148 152 161 151 138 139 142 141 146 160 144 147 142 143 118 100 85 59 44 359 17 26 360 18 357 355 341 353 353 354 2 11 2 1 2 343 345
240 259 241 255 279 25 306 34 8 36 136 150 148 160 156 146 144 157 146 147 145 139 126 113 117 137 106 102 84 76 57 351 360 17 9 28 347 336 342 356 1 355 2 2 359 352 349 351 0